| time (UTC) | temp C | wind direction | speed KPH | gust KPH | rain 1hr cm | rain 24hr cm | rain mn cm | humidity % | barometer mb |
| 20260906185517 | 10 | 0.0 | 1.6 | 0.00 | 0.03 | 0.03 | 85 | 1014.9 | |
| 20260906184517 | 10 | 0.0 | 1.6 | 0.00 | 0.03 | 0.03 | 85 | 1014.9 | |
| 20260906183536 | 11 | 248 | 1.6 | 1.6 | 0.00 | 0.03 | 0.03 | 84 | 1015.0 |
| 20260906182516 | 11 | 0.0 | 1.6 | 0.00 | 0.03 | 0.03 | 83 | 1015.1 | |
| 20260906181537 | 11 | 0.0 | 0.0 | 0.00 | 0.03 | 0.03 | 82 | 1015.1 | |
| 20260906180516 | 12 | 0.0 | 0.0 | 0.00 | 0.03 | 0.03 | 81 | 1015.0 | |
| 20260906175517 | 12 | 248 | 1.6 | 3.2 | 0.00 | 0.05 | 0.03 | 80 | 1014.9 |
| 20260906174516 | 12 | 315 | 1.6 | 3.2 | 0.00 | 0.05 | 0.03 | 78 | 1014.8 |
| 20260906173516 | 13 | 0.0 | 1.6 | 0.00 | 0.05 | 0.03 | 76 | 1014.7 | |
| 20260906172516 | 13 | 315 | 1.6 | 3.2 | 0.00 | 0.05 | 0.03 | 75 | 1014.6 |
| 20260906171516 | 14 | 315 | 1.6 | 3.2 | 0.00 | 0.05 | 0.03 | 73 | 1014.6 |
| 20260906170516 | 15 | 315 | 1.6 | 3.2 | 0.00 | 0.05 | 0.03 | 70 | 1014.5 |
| 20260906165516 | 15 | 0.0 | 0.0 | 0.00 | 0.05 | 0.03 | 66 | 1014.5 | |
| 20260906164516 | 16 | 0.0 | 3.2 | 0.00 | 0.05 | 0.03 | 62 | 1014.6 | |
| 20260906163516 | 17 | 315 | 1.6 | 3.2 | 0.00 | 0.05 | 0.03 | 57 | 1014.7 |
| 20260906162516 | 17 | 293 | 1.6 | 4.8 | 0.00 | 0.05 | 0.03 | 58 | 1014.8 |
| 20260906161516 | 17 | 315 | 3.2 | 4.8 | 0.00 | 0.05 | 0.03 | 54 | 1014.7 |
| 20260906160516 | 17 | 338 | 3.2 | 6.4 | 0.00 | 0.05 | 0.03 | 54 | 1014.6 |
| 20260906155557 | 17 | 293 | 4.8 | 8.0 | 0.00 | 0.05 | 0.03 | 52 | 1014.6 |
| 20260906154517 | 17 | 270 | 3.2 | 9.7 | 0.00 | 0.05 | 0.03 | 55 | 1014.6 |
| 20260906153516 | 18 | 270 | 4.8 | 9.7 | 0.00 | 0.05 | 0.03 | 53 | 1014.7 |
| 20260906152516 | 18 | 270 | 6.4 | 12.9 | 0.00 | 0.05 | 0.03 | 49 | 1014.5 |
| 20260906151516 | 18 | 293 | 4.8 | 9.7 | 0.00 | 0.05 | 0.03 | 50 | 1014.6 |
| 20260906150516 | 18 | 270 | 4.8 | 8.0 | 0.00 | 0.05 | 0.03 | 50 | 1014.6 |
| 20260906145536 | 18 | 270 | 6.4 | 12.9 | 0.00 | 0.05 | 0.03 | 49 | 1014.5 |
| 20260906144516 | 18 | 270 | 3.2 | 8.0 | 0.00 | 0.05 | 0.03 | 49 | 1014.6 |
| 20260906143516 | 18 | 248 | 6.4 | 12.9 | 0.00 | 0.05 | 0.03 | 48 | 1014.4 |
| 20260906142516 | 18 | 293 | 1.6 | 4.8 | 0.00 | 0.05 | 0.03 | 52 | 1014.3 |
| 20260906141516 | 18 | 338 | 4.8 | 11.3 | 0.00 | 0.05 | 0.03 | 49 | 1014.3 |
| 20260906140516 | 18 | 270 | 6.4 | 11.3 | 0.00 | 0.05 | 0.03 | 52 | 1014.4 |
| 20260906135516 | 18 | 248 | 3.2 | 9.7 | 0.00 | 0.05 | 0.03 | 55 | 1014.4 |
| 20260906134516 | 18 | 315 | 6.4 | 8.0 | 0.00 | 0.05 | 0.03 | 53 | 1014.5 |
| 20260906133516 | 18 | 248 | 4.8 | 11.3 | 0.00 | 0.05 | 0.03 | 52 | 1014.4 |
| 20260906132536 | 17 | 293 | 4.8 | 8.0 | 0.00 | 0.05 | 0.03 | 53 | 1014.4 |
| 20260906131516 | 17 | 270 | 3.2 | 9.7 | 0.00 | 0.05 | 0.03 | 54 | 1014.4 |
| 20260906130516 | 18 | 315 | 4.8 | 11.3 | 0.00 | 0.08 | 0.03 | 52 | 1014.4 |
| 20260906125516 | 18 | 315 | 6.4 | 11.3 | 0.00 | 0.13 | 0.03 | 50 | 1014.3 |
| 20260906124516 | 18 | 270 | 3.2 | 9.7 | 0.00 | 0.15 | 0.03 | 50 | 1014.3 |
| 20260906123536 | 17 | 248 | 3.2 | 8.0 | 0.00 | 0.23 | 0.03 | 53 | 1014.2 |
| 20260906122516 | 17 | 248 | 6.4 | 12.9 | 0.00 | 0.28 | 0.03 | 54 | 1014.1 |
| 20260906121516 | 18 | 315 | 4.8 | 9.7 | 0.00 | 0.28 | 0.03 | 51 | 1014.2 |
| 20260906120516 | 18 | 293 | 4.8 | 14.5 | 0.00 | 0.28 | 0.03 | 50 | 1014.1 |
| 20260906115516 | 18 | 293 | 4.8 | 14.5 | 0.00 | 0.28 | 0.03 | 51 | 1014.0 |
| 20260906114516 | 18 | 270 | 8.0 | 16.1 | 0.00 | 0.28 | 0.03 | 48 | 1014.0 |
| 20260906113516 | 18 | 270 | 4.8 | 12.9 | 0.00 | 0.28 | 0.03 | 48 | 1013.9 |
| 20260906112557 | 18 | 248 | 3.2 | 9.7 | 0.00 | 0.28 | 0.03 | 52 | 1013.9 |
| 20260906111516 | 18 | 248 | 1.6 | 8.0 | 0.00 | 0.28 | 0.03 | 56 | 1013.9 |
| 20260906110516 | 17 | 270 | 8.0 | 17.7 | 0.00 | 0.28 | 0.03 | 55 | 1013.9 |
| 20260906105516 | 17 | 293 | 6.4 | 17.7 | 0.00 | 0.28 | 0.03 | 59 | 1013.9 |
| 20260906104516 | 17 | 248 | 6.4 | 14.5 | 0.00 | 0.28 | 0.03 | 62 | 1013.9 |
| 20260906103516 | 16 | 248 | 6.4 | 17.7 | 0.00 | 0.28 | 0.03 | 61 | 1013.8 |
| 20260906102516 | 16 | 248 | 6.4 | 11.3 | 0.00 | 0.28 | 0.03 | 62 | 1013.7 |
| 20260906101516 | 16 | 248 | 6.4 | 12.9 | 0.00 | 0.28 | 0.03 | 66 | 1013.8 |
| 20260906100516 | 16 | 248 | 6.4 | 14.5 | 0.00 | 0.28 | 0.03 | 68 | 1013.7 |
| 20260906095516 | 15 | 270 | 8.0 | 12.9 | 0.00 | 0.28 | 0.03 | 69 | 1013.7 |
| 20260906094516 | 15 | 248 | 3.2 | 6.4 | 0.00 | 0.28 | 0.03 | 73 | 1013.8 |
| 20260906093516 | 15 | 315 | 4.8 | 12.9 | 0.00 | 0.28 | 0.03 | 73 | 1013.7 |
| 20260906092516 | 15 | 270 | 6.4 | 12.9 | 0.00 | 0.28 | 0.03 | 72 | 1013.7 |
| 20260906091516 | 14 | 270 | 6.4 | 12.9 | 0.00 | 0.28 | 0.03 | 72 | 1013.5 |
| 20260906090516 | 14 | 293 | 6.4 | 11.3 | 0.00 | 0.28 | 0.03 | 75 | 1013.6 |
| 20260906085556 | 13 | 270 | 4.8 | 12.9 | 0.00 | 0.28 | 0.03 | 77 | 1013.6 |
| 20260906084516 | 13 | 270 | 4.8 | 9.7 | 0.00 | 0.28 | 0.03 | 78 | 1013.5 |
| 20260906083516 | 13 | 270 | 6.4 | 11.3 | 0.00 | 0.28 | 0.03 | 79 | 1013.4 |
| 20260906082536 | 13 | 270 | 6.4 | 16.1 | 0.00 | 0.28 | 0.03 | 81 | 1013.3 |
| 20260906081516 | 12 | 270 | 6.4 | 14.5 | 0.00 | 0.28 | 0.03 | 83 | 1013.3 |
| 20260906080516 | 12 | 293 | 6.4 | 12.9 | 0.00 | 0.28 | 0.03 | 83 | 1013.1 |
| 20260906075516 | 12 | 270 | 6.4 | 11.3 | 0.00 | 0.28 | 0.03 | 84 | 1013.1 |
| 20260906074516 | 11 | 248 | 6.4 | 11.3 | 0.00 | 0.28 | 0.03 | 85 | 1012.9 |
| 20260906073516 | 11 | 270 | 8.0 | 12.9 | 0.00 | 0.28 | 0.03 | 86 | 1012.9 |
| 20260906072516 | 11 | 270 | 6.4 | 11.3 | 0.00 | 0.28 | 0.03 | 87 | 1012.7 |
| 20260906071516 | 11 | 270 | 4.8 | 11.3 | 0.00 | 0.28 | 0.03 | 87 | 1012.6 |
| 20260906070516 | 10 | 293 | 6.4 | 14.5 | 0.00 | 0.28 | 0.03 | 88 | 1012.5 |
| 20260906065516 | 10 | 270 | 4.8 | 9.7 | 0.00 | 0.28 | 0.03 | 89 | 1012.5 |
| 20260906064536 | 10 | 293 | 4.8 | 12.9 | 0.00 | 0.28 | 0.03 | 90 | 1012.3 |
| 20260906063516 | 10 | 293 | 4.8 | 16.1 | 0.00 | 0.28 | 0.03 | 90 | 1012.1 |
| 20260906062516 | 10 | 293 | 4.8 | 11.3 | 0.00 | 0.28 | 0.03 | 92 | 1012.2 |
| 20260906061556 | 9 | 270 | 6.4 | 16.1 | 0.00 | 0.28 | 0.03 | 93 | 1012.2 |
| 20260906060516 | 9 | 270 | 3.2 | 8.0 | 0.00 | 0.28 | 0.03 | 95 | 1012.0 |
| 20260906055516 | 8 | 315 | 3.2 | 11.3 | 0.00 | 0.28 | 0.03 | 96 | 1011.9 |
| 20260906054516 | 8 | 293 | 3.2 | 9.7 | 0.00 | 0.28 | 0.03 | 96 | 1011.8 |
| 20260906053536 | 8 | 315 | 4.8 | 11.3 | 0.00 | 0.28 | 0.03 | 96 | 1011.7 |
| 20260906052516 | 8 | 315 | 3.2 | 8.0 | 0.00 | 0.28 | 0.03 | 96 | 1011.6 |
| 20260906051516 | 7 | 293 | 4.8 | 12.9 | 0.00 | 0.28 | 0.03 | 96 | 1011.4 |
| 20260906050516 | 7 | 293 | 4.8 | 11.3 | 0.00 | 0.28 | 0.03 | 96 | 1011.3 |
| 20260906045516 | 7 | 293 | 6.4 | 11.3 | 0.00 | 0.28 | 0.03 | 96 | 1011.2 |
| 20260906044536 | 7 | 270 | 3.2 | 8.0 | 0.00 | 0.28 | 0.03 | 96 | 1011.1 |
| 20260906043515 | 7 | 293 | 4.8 | 9.7 | 0.00 | 0.28 | 0.03 | 96 | 1010.9 |
| 20260906042515 | 7 | 315 | 3.2 | 8.0 | 0.03 | 0.28 | 0.03 | 96 | 1010.8 |
| 20260906041516 | 6 | 315 | 3.2 | 9.7 | 0.03 | 0.28 | 0.03 | 96 | 1010.6 |
| 20260906040515 | 6 | 315 | 4.8 | 12.9 | 0.03 | 0.28 | 0.03 | 96 | 1010.6 |
| 20260906035516 | 6 | 315 | 4.8 | 8.0 | 0.03 | 0.28 | 0.03 | 96 | 1010.4 |
| 20260906034516 | 6 | 315 | 4.8 | 9.7 | 0.03 | 0.28 | 0.03 | 96 | 1010.3 |
| 20260906033516 | 6 | 315 | 6.4 | 14.5 | 0.03 | 0.28 | 0.03 | 96 | 1010.3 |
| 20260906032516 | 6 | 315 | 4.8 | 11.3 | 0.00 | 0.25 | 0.00 | 96 | 1010.1 |
| 20260906031516 | 6 | 293 | 4.8 | 9.7 | 0.00 | 0.25 | 0.00 | 96 | 1010.1 |
| 20260906030515 | 6 | 315 | 6.4 | 11.3 | 0.00 | 0.25 | 0.00 | 96 | 1010.0 |
| 20260906025536 | 6 | 315 | 4.8 | 9.7 | 0.00 | 0.25 | 0.00 | 96 | 1009.8 |
| 20260906024516 | 6 | 315 | 4.8 | 9.7 | 0.00 | 0.25 | 0.00 | 96 | 1009.7 |
| 20260906023536 | 5 | 315 | 3.2 | 4.8 | 0.00 | 0.25 | 0.00 | 96 | 1009.6 |
| 20260906022516 | 5 | 315 | 3.2 | 8.0 | 0.00 | 0.25 | 0.00 | 96 | 1009.5 |
| 20260906021516 | 5 | 293 | 3.2 | 8.0 | 0.00 | 0.25 | 0.00 | 95 | 1009.5 |
| 20260906020536 | 5 | 0.0 | 1.6 | 0.00 | 0.25 | 0.00 | 95 | 1009.2 | |
| 20260906015516 | 5 | 0.0 | 0.0 | 0.00 | 0.25 | 0.00 | 95 | 1009.1 | |
| 20260906014516 | 5 | 0.0 | 1.6 | 0.00 | 0.25 | 0.00 | 95 | 1009.0 | |
| 20260906013515 | 5 | 270 | 1.6 | 3.2 | 0.00 | 0.25 | 0.00 | 95 | 1008.9 |
| 20260906012535 | 5 | 270 | 1.6 | 3.2 | 0.00 | 0.25 | 0.00 | 95 | 1008.7 |
| 20260906011515 | 5 | 270 | 1.6 | 4.8 | 0.00 | 0.25 | 0.00 | 95 | 1008.6 |
| 20260906010515 | 5 | 0.0 | 1.6 | 0.00 | 0.25 | 0.00 | 95 | 1008.6 | |
| 20260906005536 | 5 | 270 | 1.6 | 4.8 | 0.00 | 0.25 | 0.00 | 95 | 1008.4 |
| 20260906004535 | 6 | 0.0 | 3.2 | 0.00 | 0.25 | 0.00 | 95 | 1008.3 | |
| 20260906003515 | 6 | 0.0 | 3.2 | 0.00 | 0.28 | 0.00 | 95 | 1008.3 | |
| 20260906002515 | 6 | 293 | 1.6 | 3.2 | 0.00 | 0.28 | 0.00 | 95 | 1008.2 |
| 20260906001516 | 6 | 293 | 3.2 | 3.2 | 0.00 | 0.28 | 0.00 | 95 | 1008.1 |
| 20260906000516 | 6 | 293 | 1.6 | 3.2 | 0.00 | 0.28 | 0.00 | 95 | 1008.0 |
| 20260905235515 | 6 | 293 | 1.6 | 4.8 | 0.00 | 0.28 | 0.00 | 95 | 1008.0 |
| 20260905234515 | 6 | 270 | 3.2 | 6.4 | 0.00 | 0.28 | 0.00 | 95 | 1007.9 |
| 20260905233515 | 6 | 293 | 1.6 | 3.2 | 0.00 | 0.28 | 0.00 | 95 | 1007.7 |
| 20260905232516 | 6 | 293 | 1.6 | 3.2 | 0.00 | 0.28 | 0.00 | 95 | 1007.7 |
| 20260905231516 | 6 | 293 | 1.6 | 3.2 | 0.00 | 0.28 | 0.00 | 94 | 1007.6 |
| 20260905230515 | 6 | 0.0 | 1.6 | 0.00 | 0.28 | 0.00 | 94 | 1007.6 | |
| 20260905225535 | 6 | 0.0 | 1.6 | 0.00 | 0.28 | 0.00 | 94 | 1007.5 | |
| 20260905224515 | 6 | 0.0 | 0.0 | 0.00 | 0.30 | 0.00 | 94 | 1007.4 | |
| 20260905223535 | 7 | 0.0 | 0.0 | 0.00 | 0.30 | 0.00 | 94 | 1007.2 | |
| 20260905222516 | 7 | 0.0 | 0.0 | 0.00 | 0.30 | 0.00 | 94 | 1007.1 | |
| 20260905221516 | 7 | 0.0 | 0.0 | 0.00 | 0.30 | 0.00 | 94 | 1006.9 | |
| 20260905220516 | 7 | 293 | 1.6 | 3.2 | 0.00 | 0.30 | 0.00 | 94 | 1006.7 |
| 20260905215537 | 7 | 0.0 | 1.6 | 0.00 | 0.30 | 0.30 | 94 | 1006.5 | |
| 20260905214537 | 7 | 0.0 | 0.0 | 0.00 | 0.30 | 0.30 | 93 | 1006.4 | |
| 20260905213517 | 7 | 293 | 1.6 | 1.6 | 0.00 | 0.30 | 0.30 | 94 | 1006.3 |
| 20260905212517 | 8 | 293 | 1.6 | 3.2 | 0.00 | 0.30 | 0.30 | 94 | 1006.2 |
| 20260905211517 | 8 | 293 | 1.6 | 3.2 | 0.00 | 0.30 | 0.30 | 93 | 1006.1 |
| 20260905210537 | 8 | 293 | 3.2 | 4.8 | 0.00 | 0.30 | 0.30 | 93 | 1005.9 |
| 20260905204517 | 8 | 315 | 1.6 | 4.8 | 0.00 | 0.30 | 0.30 | 93 | 1005.6 |
| 20260905203517 | 8 | 315 | 1.6 | 3.2 | 0.00 | 0.30 | 0.30 | 93 | 1005.3 |
| 20260905202517 | 8 | 0.0 | 1.6 | 0.00 | 0.30 | 0.30 | 93 | 1005.1 | |
| 20260905201517 | 9 | 315 | 1.6 | 3.2 | 0.00 | 0.30 | 0.30 | 92 | 1005.2 |
| 20260905200517 | 9 | 315 | 1.6 | 3.2 | 0.00 | 0.30 | 0.30 | 92 | 1005.0 |
| 20260905195537 | 10 | 315 | 1.6 | 3.2 | 0.00 | 0.33 | 0.30 | 92 | 1005.0 |
| 20260905194518 | 10 | 0.0 | 1.6 | 0.00 | 0.33 | 0.30 | 91 | 1004.9 | |
| 20260905193517 | 10 | 315 | 1.6 | 1.6 | 0.00 | 0.33 | 0.30 | 91 | 1004.7 |
| 20260905192517 | 10 | 293 | 1.6 | 3.2 | 0.00 | 0.33 | 0.30 | 90 | 1004.8 |
| 20260905191517 | 11 | 293 | 1.6 | 3.2 | 0.00 | 0.33 | 0.30 | 90 | 1004.7 |
| 20260905190517 | 11 | 270 | 1.6 | 3.2 | 0.00 | 0.33 | 0.30 | 90 | 1004.6 |